Theta_e
322 314 328 317 302 300 295 300 304 304 305 309 313 312 312 314 309 303 329 336 339 340 343 347 348 349 348 345 345 345 347 347 346 345 344 344 345 344 342 341 341 340 341 343 343 341 340 340 338
314 322 313 306 297 293 295 302 303 306 308 313 314 317 316 315 322 325 328 338 341 341 343 346 345 348 348 346 345 346 347 347 345 344 343 341 341 342 341 339 339 338 338 340 340 339 337 336 336
311 311 307 302 296 293 296 302 306 308 307 311 312 317 316 317 324 328 334 340 341 340 342 344 345 349 348 347 346 347 346 346 345 342 342 341 339 339 340 340 339 337 336 337 337 336 335 334 334
306 305 301 294 294 298 300 304 310 308 309 309 314 313 319 325 327 331 339 340 339 339 342 342 346 349 348 347 347 347 346 346 345 342 341 340 338 340 341 341 339 337 336 336 335 335 333 332 332
305 302 294 291 292 296 300 308 310 309 310 309 312 310 314 326 334 337 339 339 337 338 341 343 345 346 346 346 347 346 346 345 345 344 341 339 338 339 340 340 339 335 334 334 334 334 332 330 329
300 300 292 291 293 298 302 308 309 311 309 309 313 314 315 331 334 336 338 337 338 338 340 342 338 341 343 345 345 344 344 344 344 342 341 339 338 338 338 338 338 335 334 333 333 332 330 329 327
298 295 293 293 296 298 302 303 304 310 311 308 316 312 314 326 334 336 336 336 336 339 339 340 339 338 336 340 341 342 342 342 342 341 339 338 337 337 337 336 336 335 334 333 332 331 329 327 325
301 296 294 295 295 297 299 302 304 305 306 313 319 313 313 322 334 335 335 335 334 338 338 339 337 338 339 338 334 336 338 338 338 337 335 333 333 334 334 332 335 337 335 333 332 329 328 326 326
303 294 291 295 296 298 297 300 300 302 311 316 320 318 322 331 333 332 332 332 332 335 335 337 336 336 335 335 333 332 332 333 332 331 328 326 328 329 328 328 333 336 335 333 330 328 328 329 327
300 292 295 300 300 295 297 298 296 302 306 312 316 323 329 331 331 328 327 329 330 330 332 335 336 335 335 337 333 334 333 332 331 330 326 324 323 324 327 325 328 332 331 332 331 330 330 325 319
303 293 300 301 300 296 297 296 298 299 297 301 314 319 327 329 329 329 328 329 330 331 332 334 336 335 334 333 332 331 330 330 329 328 324 323 321 320 321 322 324 323 321 324 327 325 322 319 318
300 304 303 304 304 300 296 297 296 296 297 300 318 323 325 325 327 327 327 327 327 329 330 334 335 335 333 333 333 331 330 329 328 327 326 323 320 318 318 318 319 318 318 317 317 317 317 317 318
300 302 305 305 304 302 298 296 297 295 298 304 320 323 322 323 323 324 327 326 326 327 329 332 334 334 333 332 332 331 330 330 329 328 327 324 320 319 318 318 318 317 317 316 316 316 317 317 318
300 299 300 304 303 301 295 296 295 298 299 318 308 321 321 321 323 322 323 323 324 326 329 331 333 334 334 332 331 332 331 331 330 328 327 325 323 320 319 318 318 317 317 317 316 316 317 317 317
302 297 299 301 301 300 299 294 293 299 297 307 318 320 321 322 323 323 325 324 324 325 328 329 331 334 333 332 332 332 332 332 330 330 329 327 325 322 321 319 318 318 318 318 317 316 316 315 316
295 295 291 298 299 299 298 290 298 300 296 297 297 305 319 321 323 324 325 326 325 326 327 329 331 332 333 333 333 333 333 332 331 331 330 329 327 324 321 320 319 320 319 319 317 317 316 318 318
289 283 287 291 299 298 295 292 299 297 296 295 295 295 298 313 319 323 326 326 327 327 327 328 328 329 331 334 334 333 333 333 333 332 330 329 328 326 323 321 321 320 319 319 320 321 321 319 319
284 284 288 288 294 296 293 292 296 299 297 299 297 295 295 296 301 312 324 327 328 327 328 328 329 329 329 328 331 331 330 331 331 331 330 330 329 328 326 325 325 325 323 322 322 321 321 320 320
290 288 286 289 293 293 292 292 295 297 292 291 292 293 293 295 296 299 305 325 326 327 327 328 328 328 329 326 325 328 328 329 329 330 330 330 330 329 327 327 326 326 324 323 323 322 320 320 320
288 286 285 289 290 288 288 290 294 295 293 293 293 292 292 292 293 296 299 312 321 325 327 327 328 329 329 329 328 328 330 330 331 330 330 330 330 330 329 328 327 327 325 324 324 322 320 320 319
285 283 283 285 287 287 284 283 286 290 291 291 293 293 294 293 292 294 297 298 301 303 303 316 327 328 330 329 327 328 330 330 329 330 330 330 331 330 330 329 328 327 327 325 324 323 321 318 317
283 288 287 285 282 278 282 276 281 286 288 290 291 291 292 294 294 294 294 294 295 298 303 306 320 327 328 331 329 329 327 326 328 327 329 330 331 330 330 330 328 327 327 325 325 324 323 321 317
286 289 287 285 282 281 278 276 280 284 284 287 288 290 291 292 292 291 291 292 293 294 297 299 304 307 309 325 330 329 328 328 326 326 327 329 330 330 330 329 328 327 326 326 325 323 323 323 320
290 286 285 283 281 275 279 276 277 280 284 286 290 291 291 290 290 289 290 291 290 291 293 295 298 300 303 309 316 325 326 326 325 325 326 327 328 328 328 328 328 327 327 326 326 326 324 323 322
287 282 274 272 272 273 278 276 279 284 286 286 288 288 288 288 288 288 288 288 288 289 289 292 292 293 298 301 303 306 311 320 325 324 325 323 320 317 312 316 321 322 323 324 326 325 324 322 322
284 282 275 268 268 274 279 275 279 288 289 289 289 288 287 286 286 286 285 285 286 286 286 287 289 289 291 296 296 299 303 306 307 307 309 307 305 303 304 305 306 308 310 311 312 314 312 312 311
284 280 283 277 269 272 277 280 283 288 288 287 286 286 285 284 284 284 283 283 283 283 284 284 285 287 288 292 293 294 296 299 301 303 303 302 303 302 302 302 303 304 305 304 304 301 299 300 300
287 287 278 275 264 265 275 277 277 283 285 286 284 283 283 283 282 282 281 281 282 282 282 283 284 284 286 288 291 291 292 294 295 295 296 297 297 298 297 297 298 298 297 298 298 296 295 294 293
283 282 282 280 277 271 270 274 284 284 286 287 285 284 283 282 281 280 280 280 281 281 281 282 282 283 284 286 287 289 290 290 291 290 290 291 291 291 291 291 291 291 291 292 291 290 290 289 288
286 283 283 276 271 274 276 275 286 286 287 287 285 284 282 281 280 279 279 279 279 279 280 281 282 282 283 285 286 287 288 288 287 287 288 288 287 288 288 288 288 288 288 288 287 285 286 285 284
Wind_Speed
2 2 2 4 4 4 2 6 3 5 3 3 4 4 6 4 6 5 4 6 15 15 13 13 19 19 18 16 16 14 15 17 17 17 17 17 16 18 17 17 15 14 13 14 16 16 16 16 15
1 3 4 2 4 2 4 5 4 6 4 6 4 4 5 1 3 5 6 10 18 14 12 12 17 19 18 17 16 14 15 16 17 16 16 16 15 15 16 16 16 13 14 13 13 13 14 14 13
1 3 3 4 3 5 4 4 6 7 1 3 4 7 4 5 3 9 6 15 17 14 11 10 16 18 18 17 15 13 14 15 15 15 15 15 14 14 14 15 14 13 13 13 12 12 12 12 12
3 4 3 4 5 5 5 5 6 4 5 3 4 7 2 3 8 6 13 16 16 13 10 11 16 18 17 16 15 13 14 16 16 15 14 14 13 13 11 13 13 12 11 11 12 10 10 10 11
3 3 1 2 5 4 4 5 3 5 4 2 2 3 3 4 7 16 14 13 16 12 11 11 15 17 16 16 14 13 16 16 16 15 15 14 13 10 9 15 13 14 11 10 10 9 9 9 9
2 3 1 5 4 4 4 3 3 2 1 2 2 5 2 5 12 13 13 10 11 15 12 10 13 13 14 15 13 13 15 15 15 15 15 14 14 11 7 8 15 13 11 10 9 8 7 7 7
2 2 4 4 5 3 5 3 4 2 17 5 4 6 1 3 9 11 11 9 8 12 12 8 8 10 11 12 12 13 14 13 14 14 13 13 12 11 9 8 9 11 10 9 7 6 5 4 4
3 3 3 4 4 5 3 3 3 6 7 4 4 7 6 6 11 11 11 10 8 9 12 13 7 8 7 8 12 12 11 11 11 10 9 8 8 7 8 7 10 11 10 8 6 5 3 2 3
2 1 3 4 6 4 2 5 0 3 3 1 2 6 4 18 14 13 13 10 9 8 11 11 8 7 7 6 8 10 10 10 10 9 8 7 4 5 6 5 8 11 10 8 6 4 2 0 3
2 4 7 2 3 2 2 1 2 2 1 2 4 9 16 18 15 17 16 14 14 14 12 12 9 8 8 6 6 5 6 4 5 5 6 3 5 5 5 5 7 8 9 9 7 6 4 0 2
3 6 2 2 6 2 2 3 4 4 3 1 4 11 15 17 14 15 14 15 13 15 9 12 12 8 8 7 5 3 3 3 3 5 5 3 3 3 2 2 2 2 3 2 3 1 0 1 2
5 5 4 6 8 7 3 2 2 1 3 2 8 13 12 15 14 12 13 11 11 12 11 15 14 9 7 6 6 5 5 3 3 4 6 4 2 2 3 2 3 3 2 2 2 1 2 3 3
5 3 2 6 13 9 4 1 2 3 3 4 7 8 10 11 9 7 8 7 10 11 9 13 14 10 8 7 5 5 5 5 4 4 5 4 4 4 3 3 3 3 2 2 2 2 3 4 4
2 8 11 8 9 7 2 2 2 2 2 4 11 9 8 9 9 6 8 8 10 9 10 10 11 11 10 7 7 5 4 5 4 4 5 6 4 4 4 4 4 3 3 3 3 3 3 4 3
8 5 11 9 5 6 6 4 6 3 1 5 5 7 7 8 8 11 10 11 13 9 9 11 10 9 10 10 8 7 6 5 5 5 6 7 6 5 5 4 4 4 4 4 3 3 2 3 3
2 4 5 3 5 6 7 2 10 7 5 6 5 5 5 6 9 8 9 9 9 10 11 11 10 10 10 8 8 7 7 6 6 6 5 7 7 7 5 4 4 4 4 4 3 3 3 4 3
1 3 5 3 4 4 3 3 2 4 6 6 7 7 5 5 6 6 7 10 12 11 11 12 10 11 11 10 8 7 8 6 6 6 6 8 8 8 6 5 5 5 4 4 4 3 4 3 3
5 4 5 5 3 5 8 6 7 6 7 9 7 5 6 6 10 7 9 9 8 8 10 11 10 10 9 5 5 4 4 4 4 5 6 8 7 8 8 5 6 6 3 4 3 4 3 3 2
6 4 3 2 8 8 9 8 12 7 5 6 6 6 5 8 5 2 5 9 8 7 9 11 11 10 8 4 3 3 5 3 4 4 6 7 8 8 8 5 5 5 5 5 5 3 4 3 1
13 13 7 2 0 0 4 12 14 6 6 6 8 6 6 4 3 6 8 6 5 8 7 9 12 11 9 7 5 3 5 3 4 5 6 7 7 7 7 7 6 6 4 5 5 4 2 3 3
4 6 4 4 2 3 3 5 4 4 5 4 4 5 4 3 6 6 8 9 8 7 5 2 7 9 9 7 2 2 2 3 3 4 5 5 7 7 7 7 6 7 6 6 6 6 7 4 3
7 4 3 6 5 4 0 5 5 5 7 5 7 6 5 5 6 6 7 8 9 8 6 6 2 5 5 8 10 11 8 8 7 5 4 5 7 8 8 8 8 8 7 7 6 6 5 5 4
4 7 7 4 4 3 1 2 7 2 4 8 4 1 7 8 7 7 7 7 6 9 9 8 7 9 7 3 7 7 8 6 2 2 7 7 7 9 9 9 9 8 6 7 8 6 7 6 4
7 7 7 4 2 1 5 5 5 4 4 3 5 6 8 7 7 7 6 7 7 8 9 9 9 8 9 7 7 3 6 4 3 4 5 5 5 5 5 6 8 8 8 8 8 9 9 8 6
4 5 3 3 1 4 0 2 7 4 6 5 7 6 7 7 7 8 9 8 9 10 10 9 10 9 9 8 8 7 6 3 5 5 3 3 2 2 5 5 3 1 1 2 5 7 7 6 6
4 6 6 8 5 2 2 5 4 3 6 8 9 8 7 7 7 8 8 8 9 9 10 8 9 8 9 8 9 8 7 4 5 6 4 4 5 5 7 7 8 9 8 7 7 3 4 4 5
4 3 3 6 3 3 4 4 2 4 7 7 6 7 6 6 7 7 7 7 7 7 8 8 8 7 7 8 7 8 8 7 7 7 7 6 6 6 8 8 8 10 8 7 11 9 11 10 9
4 7 4 4 4 3 3 1 0 6 2 5 3 4 4 4 5 5 5 6 5 5 5 6 6 6 6 7 7 7 9 8 8 8 10 8 9 9 10 10 9 10 9 9 9 8 9 9 9
3 3 4 4 4 4 2 1 3 5 8 6 5 4 4 4 3 4 5 5 5 5 6 6 7 7 8 8 7 8 9 9 10 9 10 8 8 9 11 10 10 10 9 9 9 11 8 12 10
1 2 5 4 4 1 2 2 2 2 3 5 5 5 4 4 3 3 4 5 5 6 6 6 6 7 7 7 8 9 9 9 11 10 10 10 10 10 9 8 10 8 9 11 9 10 9 11 10
Wind_Direction
5 127 94 44 84 70 243 253 232 272 287 257 124 116 158 88 155 210 130 138 130 145 153 149 146 144 143 143 141 141 134 130 123 113 108 105 106 109 107 103 100 104 101 93 98 97 95 94 91
318 115 57 83 107 151 256 239 238 247 231 120 86 80 37 94 86 120 122 149 137 142 149 148 147 145 144 145 145 147 141 133 126 121 116 113 112 111 114 107 103 108 108 103 99 98 95 95 90
87 60 109 139 146 183 214 236 283 307 58 109 62 39 125 165 45 151 135 142 132 138 144 143 145 147 146 148 148 151 142 135 130 128 121 119 121 121 117 113 108 102 118 110 102 97 94 93 86
25 23 32 122 206 243 205 244 187 314 41 46 163 78 27 269 149 151 137 137 131 136 136 142 147 146 146 147 149 151 151 140 132 133 125 120 123 123 127 117 107 111 106 107 108 100 93 88 80
17 78 148 198 227 257 255 264 5 7 332 10 275 149 46 27 98 130 133 138 136 131 134 144 143 146 148 148 146 151 150 143 135 134 131 129 130 127 129 129 114 115 113 112 107 101 89 79 71
11 82 169 203 223 231 255 197 344 304 232 1 52 97 114 128 127 136 128 134 139 134 140 146 140 142 146 147 144 143 143 141 137 138 137 138 139 138 132 144 127 129 124 123 118 106 92 77 69
129 121 225 201 205 229 210 124 216 239 279 249 183 106 64 132 135 126 121 116 127 135 136 137 136 139 139 141 139 143 143 142 142 143 144 146 149 149 144 123 126 136 137 133 127 120 103 82 48
115 122 257 215 177 222 274 112 316 162 227 87 176 168 188 178 134 119 113 115 118 132 143 151 132 137 138 145 143 144 143 144 145 145 152 151 157 154 152 142 143 133 140 144 144 128 109 80 27
116 189 220 207 157 235 242 128 206 301 124 156 323 154 170 136 132 129 132 128 128 140 152 155 139 138 138 136 151 146 147 149 148 148 141 132 141 154 152 153 153 145 145 156 159 154 163 203 358
61 186 203 236 200 235 312 259 181 75 30 31 40 66 127 138 145 150 156 153 158 163 163 163 152 148 144 150 147 145 147 145 146 145 145 132 144 150 149 163 159 157 161 167 173 180 193 74 342
151 210 205 1 347 310 288 328 121 144 50 203 168 137 143 148 153 161 163 165 164 166 164 173 165 156 152 146 149 141 137 138 147 154 155 142 129 128 122 126 145 159 186 155 172 220 289 287 301
230 264 74 332 345 336 345 357 27 350 179 290 166 152 146 155 164 163 167 164 153 163 168 173 174 164 158 148 163 160 156 155 155 168 161 149 145 149 152 160 171 171 178 174 179 221 254 267 273
207 308 25 355 320 297 293 260 314 268 285 266 138 143 159 161 161 153 160 156 154 164 171 177 172 169 164 160 163 164 168 166 167 165 174 161 166 181 170 189 188 197 179 198 222 235 259 279 286
189 253 279 297 289 290 254 266 83 260 65 88 169 165 158 165 165 146 155 162 168 165 173 178 176 172 168 169 171 175 172 172 166 171 181 184 174 177 180 182 203 213 206 214 219 226 252 272 273
177 194 243 229 240 267 161 270 218 195 164 111 143 167 171 174 163 182 186 177 172 177 168 178 174 178 177 179 177 177 183 175 179 190 186 184 184 187 185 185 190 208 205 207 211 234 250 274 272
307 21 182 222 268 247 163 228 233 231 212 194 177 208 188 198 196 188 181 184 185 172 168 179 175 177 181 186 186 188 186 183 194 193 189 193 188 183 182 182 201 206 199 194 195 201 227 234 221
273 204 193 250 287 331 182 186 241 162 180 219 198 206 210 217 219 215 191 189 184 181 175 178 171 177 185 188 183 183 177 185 194 188 192 198 195 183 176 185 206 196 198 190 202 211 208 223 254
180 215 199 186 223 287 293 292 294 252 205 217 225 222 217 218 234 216 211 198 195 179 182 178 178 182 181 173 177 156 157 173 179 192 193 193 194 190 186 198 206 184 189 196 194 218 221 222 246
57 270 122 339 188 163 266 274 279 262 248 180 192 229 205 215 240 306 259 205 167 180 177 181 182 186 178 165 150 170 178 175 184 191 200 191 193 193 187 193 200 187 188 202 191 199 221 244 163
174 226 202 219 259 76 194 235 248 214 248 202 192 206 221 182 167 49 19 37 162 186 188 189 194 188 187 188 188 170 157 172 195 192 196 192 190 192 197 193 196 194 186 203 198 181 197 224 177
230 180 196 189 85 50 326 276 255 237 211 267 252 211 239 216 127 66 37 29 33 52 23 292 206 189 187 186 182 70 76 101 160 199 212 196 192 191 196 196 194 203 200 207 198 197 190 205 197
220 204 149 135 126 175 179 268 250 227 234 197 242 217 214 109 82 67 45 28 19 8 2 4 353 183 203 182 186 203 203 200 211 192 186 191 193 205 207 203 200 207 196 200 206 206 194 184 204
207 146 159 130 101 124 196 144 266 28 250 238 240 156 75 67 66 59 48 38 16 11 5 359 23 43 24 302 218 212 218 218 194 194 198 201 198 207 210 206 211 217 206 207 201 196 202 202 196
152 94 60 48 80 308 213 145 269 198 224 99 50 59 69 57 59 54 42 36 23 15 11 10 10 35 22 17 0 258 219 214 190 217 213 198 197 203 216 214 217 219 210 205 208 212 209 207 210
106 91 50 15 337 214 152 147 263 318 348 327 141 94 66 53 44 43 31 31 25 15 13 14 10 12 18 29 23 17 7 335 228 219 221 169 114 49 28 17 359 355 325 254 217 208 206 194 194
168 162 152 184 193 157 117 220 259 25 38 55 86 95 82 65 50 44 33 26 25 20 6 18 20 6 8 31 31 14 31 39 47 23 40 55 67 52 31 38 44 35 19 58 21 337 134 117 98
180 154 148 102 41 85 208 270 98 90 64 57 64 72 64 60 52 44 37 36 22 15 18 14 19 5 8 32 36 33 29 40 57 51 53 63 53 62 53 50 33 50 35 32 67 57 1 48 47
152 157 77 25 114 255 287 279 237 349 28 133 104 97 84 67 54 47 43 37 32 29 15 22 21 22 2 30 41 48 42 39 54 63 54 56 60 47 47 45 52 50 54 33 63 68 50 70 60
122 130 65 111 123 170 148 254 25 322 310 188 140 122 118 100 76 56 40 31 32 34 29 26 21 14 24 32 35 49 51 48 59 57 66 51 51 72 66 52 56 52 57 61 71 71 78 76 67
41 83 141 140 251 249 124 267 10 1 353 105 138 138 135 130 115 78 55 40 31 30 30 26 24 25 18 30 42 50 53 58 60 63 55 66 59 58 60 65 70 54 61 63 58 67 69 68 71